Regional Weather Roundup
Issued by NWS Albany, NY

Home | Current Version | Previous Version | Text Only | Print | Product List | Glossary On
Versions: 1 2 3 4 5 6 7 8 9 10 11 12 13 14 15 16 17 18 19 20 21 22 23 24 25 26 27 28 29 30 31 32 33 34 35 36 37 38 39 40 41 42 43 44 45 46 47 48 49 50
000
ASUS41 KALY 240010
RWRALY

NEW YORK STATE HOURLY WEATHER ROUNDUP
NATIONAL WEATHER SERVICE ALBANY NY
700 PM EST THU NOV 23 2017

NOTE: "FAIR" INDICATES FEW OR NO CLOUDS BELOW 12,000 FEET WITH NO
SIGNIFICANT WEATHER AND/OR NO OBSTRUCTIONS TO VISIBILITY.

NYZ032-033-038>043-046>054-057>066-NYZ062>081-082-084-240100-
EAST


CITY           SKY/WX    TMP DP  RH WIND       PRES   REMARKS
ALBANY         CLOUDY    29  21  72 S3        30.00S
GLENS FALLS    CLOUDY    30  24  78 CALM      29.98S
POUGHKEEPSIE   PTCLDY    29  20  69 CALM      29.99F
NEWBURGH       CLEAR     32  23  69 W8        30.00S WCI  25
MONTGOMERY     CLEAR     32  20  61 W3        29.99S
WHITE PLAINS   CLOUDY    35  21  56 SW3       29.99S
ISLIP          PTCLDY    32  23  69 CALM      30.02R
NEW YORK CITY  MOCLDY    43  19  38 W9        30.02R
CENTRAL PARK   CLEAR     41  19  41 W6        30.04S
$$

NYZ005>009-017-018-044>046-055-056-240100-
CENTRAL


CITY           SKY/WX    TMP DP  RH WIND       PRES   REMARKS
FULTON         CLOUDY    35  26  69 S9        29.97S WCI  28
SYRACUSE       CLOUDY    34  25  69 SW7       29.98S WCI  28
ROME           CLOUDY    33  26  75 CALM      29.99S
ELMIRA         CLOUDY    34  26  72 CALM      29.97R
BINGHAMTON     CLOUDY    30  20  66 SW5       29.94F WCI  25
MONTICELLO     PTCLDY    29  19  66 NW6       29.98S WCI  23
$$

NYZ026>034-041>043-087-240100-
NORTH


CITY           SKY/WX    TMP DP  RH WIND       PRES   REMARKS
WATERTOWN      CLOUDY    34  26  72 S12G17    29.93F WCI  25
FORT DRUM      NOT AVBL
OGDENSBURG     CLOUDY    33  28  83 S8        29.90F WCI  26
MASSENA        CLOUDY    33  27  78 SW15      29.91F WCI  23
SARANAC LAKE   CLOUDY    27  24  89 SW9       29.87S WCI  18
PLATTSBURGH    CLOUDY    31  19  61 S7        29.94F WCI  24
$$

NYZ001>004-010>016-019>021-085-240100-
WEST


CITY           SKY/WX    TMP DP  RH WIND       PRES   REMARKS
NIAGARA FALLS  CLOUDY    40  28  62 SW13      29.95R WCI  32
BUFFALO        CLOUDY    36  24  62 SW10      29.96R WCI  28
DUNKIRK        CLOUDY    36  23  59 SW8       29.98R WCI  30
JAMESTOWN      CLOUDY    31  22  69 SW9       29.95R WCI  23
WELLSVILLE     CLOUDY    34  20  56 W7        29.94R WCI  28
ROCHESTER      CLOUDY    37  28  70 SW9       29.96R WCI  30
PENN YAN       CLOUDY    35  25  66 S5        29.97R WCI  31
$$

             KEY
       WCI = WIND CHILL INDEX
       VSB = VISIBILITY
       HX  = HEAT INDEX
$$



USA.gov is the U.S. government's official web portal to all federal, state and local government web resources and services.